Location: Kitchener
(43.4500°N, 80.5000°W)
Time: 03:12:32
(UTC-05:00)

Daily predictions for brighter satellites

Satellite Brightness Start Highest point End
(mag) Time Altitude Azimuth Time Altitude Azimuth Time Altitude Azimuth
Cosmos 2237 Rocket 4.2 04:10:24 20° NE 04:10:24 20° NE 04:12:05 10° NNE
CENTAUR R/B 3.3 04:11:31 47° E 04:11:31 47° E 04:17:06 10° NE
ADEOS II 4.3 04:30:36 10° NNE 04:31:29 15° NNE 04:31:29 15° NNE
Lacrosse 5 rocket 4.2 04:43:21 11° NNE 04:43:21 11° NNE 04:43:38 10° NE
Cosmos 2219 Rocket 4.2 04:49:27 17° N 04:49:27 17° N 04:50:48 10° NNE
Cosmos 2333 Rocket 3.8 04:56:53 22° N 04:56:53 22° N 04:59:00 10° NNE
Cosmos 2297 3.7 04:54:45 73° SSE 04:54:45 73° SSE 04:59:49 10° SSE
Meteor 1-14 Rocket 4.3 04:49:50 10° S 04:55:29 74° E 05:01:04 10° NNE
Cosmos 921 Rocket 4.4 04:55:07 34° NE 04:55:54 37° ENE 05:00:04 10° SE
COSMO-SKYMED 1 4.1 04:53:22 10° SE 04:57:16 33° ENE 04:59:03 24° NNE
DELTA 2 R/B (1) 4.5 05:01:35 36° S 05:01:35 36° S 05:05:57 10° SE
Cosmos 2278 Rocket 4.1 05:14:02 15° SSW 05:14:02 15° SSW 05:15:09 10° SSW
Okean 1 4.5 05:09:30 33° NE 05:10:41 42° ENE 05:14:31 10° SSE
USA 32 4.3 05:07:43 11° N 05:12:47 65° E 05:17:58 10° SSE
Celestis-02/Orion 38 4.4 05:07:50 10° SSE 05:13:00 80° WSW 05:13:27 73° WNW
Cosmos 2074 Rocket 4.3 05:06:53 10° S 05:13:04 66° E 05:19:17 10° NNE
Cosmos 923 Rocket 3.8 05:13:21 78° WNW 05:13:21 78° WNW 05:18:40 10° NNE
Meteor 1-25 Rocket 4.4 05:12:59 10° S 05:18:48 78° E 05:24:38 10° NNE
SL-16 R/B 2.0 05:17:22 43° SW 05:19:16 78° WNW 05:24:59 10° NNE
Ariane Rocket 4.4 05:15:46 10° NNE 05:20:28 37° E 05:25:08 10° SSE
Cosmos 2184 Rocket 4.0 05:20:34 10° S 05:26:42 80° E 05:32:55 10° N
Cosmos 292 Rocket 3.6 05:23:40 20° SSW 05:27:01 88° WNW 05:31:52 10° NNE
Cosmos 1812 3.1 05:28:28 53° S 05:28:28 53° S 05:31:28 10° S
Cosmos 1346 Rocket 3.2 05:28:50 33° NNE 05:30:22 59° ENE 05:34:15 10° SSE
Timation 1 Rocket 4.5 05:30:47 47° W 05:31:42 51° WSW 05:37:28 10° S
Iridium 2 3.5 05:31:33 10° S 05:35:21 84° W 05:35:36 76° NNW
USA 215 3.1 05:29:58 10° NE 05:36:31 79° NW 05:40:47 24° WSW
CZ-4 R/B 4.3 05:36:20 10° NE 05:39:05 18° E 05:41:48 10° SE
Cosmos 1680 Rocket 3.5 05:38:54 24° SW 05:41:59 57° WNW 05:47:08 10° NNE
SL-08 ROCKET BODY 4.2 05:36:24 10° SSW 05:42:23 75° W 05:48:19 10° N
Cosmos 2181 Rocket 4.5 05:42:27 35° WNW 05:43:38 37° W 05:49:23 10° SSW
SKYMED 2 3.4 05:40:54 10° S 05:45:13 76° WSW 05:47:41 25° NNW
Cosmos 2151 Rocket 3.5 05:41:28 10° SSW 05:45:55 60° W 05:50:22 10° N
Radarsat Rocket 4.4 05:42:26 10° NNE 05:49:22 86° WNW 05:57:14 10° SSW
Cosmos 2237 Rocket 3.5 05:52:17 21° NNW 05:52:17 21° NNW 05:55:25 10° N
CSL-04 DEB 4.5 05:49:54 10° NNE 05:53:56 77° ESE 05:58:03 10° S
CZ-3 R/B 4.0 05:51:19 10° SSW 05:55:15 13° S 05:57:52 10° SSE
Meteor 1-28 Rocket 3.3 05:51:34 10° SSE 05:55:20 74° ENE 05:59:00 11° N
Cosmos 1536 4.4 05:52:47 10° SSE 05:56:27 37° E 06:00:10 10° NNE
Cosmos 1633 3.2 05:54:21 10° S 05:57:55 56° E 06:01:31 10° NNE
NOAA 6 4.1 05:54:08 10° N 05:59:06 53° WNW 06:04:04 10° SSW
Cosmos 2112 Rocket 4.2 05:55:55 10° SW 06:00:54 45° WNW 06:05:54 10° N
CENTAUR R/B 3.1 05:58:46 27° W 06:01:28 38° NW 06:08:00 10° NNE
Cosmos 1610 Rocket 4.4 05:59:55 10° SSW 06:06:04 73° W 06:12:20 10° N
Tiangong 2 1.1 06:05:56 41° WSW 06:06:54 75° S 06:10:02 10° E
Cosmos 1536 Rocket 4.0 06:06:16 24° NW 06:08:23 38° W 06:12:27 10° SSW
CSL-04 Debris 4.4 06:04:08 10° NNE 06:09:36 73° ESE 06:15:03 10° S
CSL-04 Rocket 3.8 06:04:19 10° NNE 06:09:54 85° ESE 06:15:25 10° SSW
CZ-2C R/B 4.2 06:05:25 10° NNE 06:10:11 36° E 06:14:52 10° SSE
Cosmos 1238 Rocket 4.1 06:08:45 25° WNW 06:10:25 31° W 06:15:11 10° SSW
Helios 1B rocket 4.0 06:06:39 10° SE 06:10:25 36° ENE 06:14:14 10° N
ADEOS II 4.0 06:11:50 10° NNW 06:12:25 12° NNW 06:12:25 12° NNW
YAOGAN 1 4.5 06:11:54 10° NNE 06:15:50 33° E 06:19:45 10° SSE
Cosmos 1603 3.6 06:11:02 10° SSW 06:16:43 72° WNW 06:22:24 10° NNE
Cosmos 2369 Rocket 2.5 06:13:06 10° NNW 06:18:50 68° ENE 06:24:30 10° SSE
Lacrosse 5 rocket 3.3 06:19:05 13° NNW 06:20:08 14° N 06:22:34 10° NNE
SMAP 4.3 06:19:13 10° NNE 06:23:41 44° E 06:28:08 10° S
Cosmos 1025 Rocket 3.2 06:21:47 10° N 06:26:12 77° E 06:30:33 10° SSE
Okean 1 Rocket 3.1 06:24:14 10° SSW 06:28:35 57° W 06:32:55 10° N
PSLV R/B 4.1 06:29:19 17° WSW 06:31:36 41° SSW 06:34:48 10° ESE
COSMO-SKYMED 1 3.7 06:30:01 10° SSW 06:33:28 23° W 06:36:15 13° NW
Cosmos 921 Rocket 4.3 06:31:59 17° WNW 06:33:56 22° W 06:37:23 10° SSW
PAYLOAD A 4.2 06:29:00 10° NNE 06:34:22 87° ESE 06:39:48 10° SSW
Lacrosse 5 2.1 06:29:34 10° SW 06:34:39 73° SE 06:39:45 10° NE
Okean 1-7 Rocket 3.7 06:31:01 10° NNW 06:35:19 54° W 06:39:35 10° S
GRACE-2 4.1 06:32:35 10° N 06:35:23 72° E 06:38:08 10° S
GRACE-1 4.0 06:33:01 10° N 06:35:48 74° E 06:38:34 10° S
Kosmos-1675 4.2 06:33:39 10° SSW 06:36:29 78° ESE 06:47:51 10° NE
Nadezhda 3 Rocket 4.1 06:30:53 10° NNW 06:37:05 56° W 06:43:15 10° SSW
SPOT 3 Rocket 4.2 06:32:31 10° NNE 06:37:37 59° ESE 06:42:40 10° S
Cosmos 2056 Rocket 4.0 06:37:22 10° NW 06:42:05 37° WSW 06:46:45 10° SSW
Cosmos 1943 3.2 06:38:21 10° SSW 06:43:58 88° ESE 06:49:40 10° NNE
USA 129 3.4 06:47:12 10° SW 06:48:35 16° W 06:49:05 15° WNW
Cosmos 44 Rocket 3.4 06:48:04 10° SW 06:53:14 67° NW 06:58:20 10° NNE
IDEFIX/ARIANE 42P 2.6 06:49:48 10° NNE 06:55:01 87° ESE 07:00:14 10° SSW
Cosmos 2341 Rocket 4.1 06:49:16 10° SSW 06:55:26 55° WNW 07:01:35 10° N
Cosmos 1892 Rocket 3.6 06:51:00 10° N 06:55:29 89° E 06:59:58 10° S
Okean 2 3.4 06:51:58 10° N 06:56:11 81° W 07:00:20 10° S
Meteor 1-11 Rocket 4.1 06:50:40 10° SW 06:56:14 44° WNW 07:01:45 10° N
Cosmos 1727 Rocket 4.5 06:52:02 10° N 06:58:12 65° E 07:04:20 10° SSE
Ariane Rocket 3.8 06:55:01 10° N 06:59:16 28° WNW 07:03:31 10° WSW
Meteor 1-29 2.8 06:58:00 10° S 07:01:21 75° WSW 07:04:45 10° NNW
SL-16 R/B 3.7 07:01:09 10° WNW 07:04:22 15° NW 07:07:35 10° N
ATLAS CENTAUR Rocket 4.5 07:03:17 10° WSW 07:06:00 13° SSW 07:08:04 10° S
Cosmos 1943 Rocket 2.3 07:07:03 10° NNW 07:12:35 85° ENE 07:18:06 10° SSE
